PE1RJX Weather Reports


Display with metric or nautical units.
time (UTC)temp
F
wind
direction
speed
MPH
gust
MPH
rain 1hr
in
rain 24hr
in
rain mn
in
humidity
%
barometer
mb
20200710141129 63 281 5.0 0.0 0.00 0.00 0.17 70 1016.9
20200710140710 63 327 6.0 0.0 0.00 0.00 0.17 69 1016.9
20200710140356 63 245 7.0 0.0 0.00 0.00 0.17 69 1016.9
20200710135639 62 294 6.0 0.0 0.00 0.00 0.17 71 1016.9
20200710135143 62 306 5.0 0.0 0.00 0.00 0.17 73 1016.8
20200710134635 62 350 5.0 0.0 0.00 0.00 0.17 73 1016.8
20200710134127 62 257 5.0 0.0 0.00 0.00 0.17 74 1016.8
20200710133637 61 331 6.0 0.0 0.00 0.00 0.17 75 1016.7
20200710133152 61 10 7.0 0.0 0.00 0.00 0.17 75 1016.6
20200710132706 61 341 6.0 0.0 0.00 0.00 0.17 75 1016.4
20200710132133 61 18 5.0 0.0 0.00 0.00 0.17 77 1016.4
20200710131628 61 5 5.0 0.0 0.00 0.00 0.17 76 1016.3
20200710130339 62 321 5.0 0.0 0.00 0.00 0.17 77 1016.2
20200710125139 63 336 5.0 0.0 0.00 0.00 0.17 73 1015.9
20200710124650 63 333 5.0 0.0 0.00 0.00 0.17 73 1015.8
20200710124130 63 17 5.0 0.0 0.00 0.00 0.17 73 1015.8
20200710123634 62 30 6.0 0.0 0.00 0.00 0.17 75 1015.7
20200710123156 62 344 7.0 0.0 0.00 0.00 0.17 74 1015.6
20200710122702 62 326 7.0 0.0 0.00 0.00 0.17 74 1015.5
20200710122144 62 30 6.0 0.0 0.00 0.00 0.17 74 1015.4
20200710121643 62 317 6.0 0.0 0.00 0.00 0.17 74 1015.4
20200710121131 61 338 6.0 0.0 0.00 0.00 0.17 75 1015.3
20200710120642 62 351 6.0 0.0 0.00 0.00 0.17 75 1015.3
20200710120307 62 350 7.0 0.0 0.00 0.00 0.17 75 1015.3
20200710115648 62 300 7.0 0.0 0.00 0.00 0.17 74 1015.3
20200710115131 62 329 7.0 0.0 0.00 0.00 0.17 74 1015.3
20200710114643 62 340 6.0 0.0 0.00 0.00 0.17 76 1015.1
20200710114133 61 292 6.0 0.0 0.00 0.00 0.17 76 1015.1
20200710113623 61 21 6.0 0.0 0.00 0.00 0.17 77 1015.0
20200710113138 61 346 5.0 0.0 0.00 0.00 0.17 76 1014.9
20200710112647 61 313 6.0 0.0 0.00 0.00 0.17 77 1014.8
20200710112139 61 342 7.0 0.0 0.00 0.00 0.17 76 1014.8
20200710111717 62 306 6.0 0.0 0.00 0.00 0.17 78 1014.8
20200710111132 62 360 5.0 0.0 0.00 0.00 0.17 78 1014.7
20200710110632 61 30 6.0 0.0 0.00 0.00 0.17 79 1014.6
20200710110323 61 351 5.0 0.0 0.00 0.00 0.17 79 1014.4
20200710105629 61 317 5.0 0.0 0.00 0.00 0.17 80 1014.3
20200710105147 61 23 5.0 0.0 0.00 0.00 0.17 81 1014.3
20200710104639 60 323 6.0 0.0 0.00 0.00 0.17 80 1014.2
20200710104131 60 340 6.0 0.0 0.00 0.00 0.17 80 1014.2
20200710103624 60 304 6.0 0.0 0.00 0.00 0.17 80 1014.1
20200710103201 60 342 7.0 0.0 0.00 0.00 0.17 80 1013.9
20200710102634 60 338 6.0 0.0 0.00 0.00 0.17 81 1013.8
20200710102125 60 331 5.0 0.0 0.00 0.00 0.17 80 1013.8
20200710101637 61 327 4.0 0.0 0.00 0.00 0.17 81 1013.8
20200710101127 61 360 5.0 0.0 0.00 0.00 0.17 82 1013.7
20200710100647 60 349 6.0 0.0 0.00 0.00 0.17 82 1013.6
20200710100305 60 5 7.0 0.0 0.00 0.00 0.17 82 1013.4
20200710095646 60 331 6.0 0.0 0.00 0.00 0.17 84 1013.3
20200710095127 60 360 4.0 0.0 0.00 0.00 0.17 88 1013.3
20200710094641 59 344 4.0 0.0 0.00 0.00 0.17 89 1013.2
20200710094133 59 36 5.0 0.0 0.00 0.00 0.17 90 1013.2
20200710093639 58 329 5.0 0.0 0.00 0.00 0.17 91 1013.2
20200710093148 57 347 5.0 0.0 0.00 0.00 0.17 92 1013.1
20200710092628 57 12 5.0 0.0 0.00 0.00 0.17 92 1013.0
20200710092136 57 10 4.0 0.0 0.00 0.00 0.17 92 1012.9
20200710091639 57 345 4.0 0.0 0.00 0.00 0.17 92 1012.8
20200710091147 56 346 4.0 0.0 0.00 0.00 0.17 93 1012.7
20200710090645 56 13 4.0 0.0 0.00 0.00 0.17 93 1012.7
20200710090306 56 9 4.0 0.0 0.00 0.00 0.17 93 1012.7
20200710085622 57 327 3.0 0.0 0.00 0.00 0.17 93 1012.6
20200710085144 57 346 4.0 0.0 0.00 0.00 0.17 93 1012.5
20200710084641 56 322 6.0 0.0 0.00 0.00 0.17 93 1012.3
20200710084132 56 339 6.0 0.0 0.00 0.00 0.17 93 1012.2
20200710083628 56 360 7.0 0.0 0.00 0.00 0.17 92 1012.2
20200710083142 56 355 6.0 0.0 0.00 0.00 0.17 92 1012.2
20200710082641 57 355 6.0 0.0 0.00 0.00 0.17 93 1012.1
20200710082131 57 355 5.0 0.0 0.00 0.00 0.17 92 1012.0
20200710081651 57 360 5.0 0.0 0.00 0.00 0.17 92 1011.8
20200710081143 57 355 7.0 0.0 0.00 0.00 0.17 92 1011.7
20200710080633 57 325 8.0 0.0 0.00 0.00 0.17 92 1011.7
20200710080312 57 5 7.0 0.0 0.00 0.00 0.17 92 1011.5
20200710075627 57 28 6.0 0.0 0.00 0.00 0.17 92 1011.2
20200710075132 58 304 5.0 0.0 0.00 0.00 0.17 92 1011.2
20200710074645 58 360 3.0 0.0 0.00 0.00 0.17 92 1011.1
20200710074129 58 17 3.0 0.0 0.00 0.00 0.17 92 1011.0
20200710073624 58 325 4.0 0.0 0.00 0.00 0.17 92 1010.8
20200710073139 58 340 4.0 0.0 0.00 0.00 0.16 91 1010.7
20200710072624 58 355 4.0 0.0 0.00 0.00 0.15 91 1010.7
20200710072137 58 351 4.0 0.0 0.00 0.00 0.14 91 1010.6
20200710071630 58 346 3.0 0.0 0.00 0.00 0.13 92 1010.6
20200710071148 58 360 4.0 0.0 0.00 0.00 0.13 92 1010.4
20200710070642 58 360 4.0 0.0 0.00 0.00 0.13 92 1010.2
20200710065623 58 348 2.0 0.0 0.00 0.00 0.13 92 1010.1
20200710065144 58 355 3.0 0.0 0.00 0.00 0.13 92 1010.1
20200710064623 57 345 3.0 0.0 0.00 0.00 0.13 92 1010.0
20200710064141 57 13 3.0 0.0 0.00 0.00 0.13 92 1009.8
20200710063632 57 24 3.0 0.0 0.00 0.00 0.13 93 1009.8
20200710063151 57 360 4.0 0.0 0.00 0.00 0.13 93 1009.7
20200710062631 57 360 5.0 0.0 0.00 0.00 0.13 93 1009.7
20200710062122 57 14 5.0 0.0 0.00 0.00 0.13 93 1009.6
20200710061630 57 340 5.0 0.0 0.00 0.00 0.13 93 1009.3
20200710061139 57 15 6.0 0.0 0.00 0.00 0.13 93 1009.1
20200710060635 57 340 6.0 0.0 0.00 0.00 0.13 94 1009.1
20200710055641 57 360 6.0 0.0 0.00 0.00 0.13 94 1009.0
20200710055137 57 38 6.0 0.0 0.00 0.00 0.13 94 1009.0
20200710054131 57 350 5.0 0.0 0.00 0.00 0.13 94 1008.9
20200710053622 57 340 5.0 0.0 0.00 0.00 0.13 94 1008.9
20200710053135 57 355 6.0 0.0 0.00 0.00 0.13 94 1009.0
20200710052642 57 5 6.0 0.0 0.00 0.00 0.13 94 1008.9
20200710052133 57 355 6.0 0.0 0.00 0.00 0.13 94 1008.7
20200710051627 57 350 5.0 0.0 0.00 0.00 0.13 94 1008.6
20200710051137 57 12 5.0 0.0 0.00 0.00 0.13 94 1008.6
20200710050630 57 338 5.0 0.0 0.00 0.00 0.13 94 1008.6
20200710050307 57 355 5.0 0.0 0.00 0.00 0.13 94 1008.6
20200710045639 57 338 5.0 0.0 0.00 0.00 0.13 94 1008.6
20200710045134 57 355 5.0 0.0 0.00 0.00 0.13 94 1008.6
20200710044630 57 5 5.0 0.0 0.00 0.00 0.13 94 1008.5
20200710044121 57 350 6.0 0.0 0.00 0.00 0.13 94 1008.4
20200710043641 57 344 6.0 0.0 0.00 0.00 0.13 94 1008.2
20200710043133 57 341 6.0 0.0 0.00 0.00 0.13 94 1008.1
20200710042632 57 5 6.0 0.0 0.00 0.00 0.13 94 1008.1
20200710042127 57 340 6.0 0.0 0.00 0.00 0.13 94 1008.0
20200710041650 58 347 4.0 0.0 0.00 0.00 0.13 94 1007.8
20200710041123 59 344 3.0 0.0 0.00 0.00 0.13 94 1007.6
20200710040635 59 328 3.0 0.0 0.00 0.00 0.13 94 1007.6
20200710040309 59 338 3.0 0.0 0.00 0.00 0.13 94 1007.6
20200710035633 59 341 2.0 0.0 0.00 0.00 0.13 94 1007.5
20200710035127 59 336 3.0 0.0 0.00 0.00 0.13 94 1007.4
20200710034641 60 319 4.0 0.0 0.00 0.00 0.13 94 1007.3
20200710034130 60 350 3.0 0.0 0.00 0.00 0.13 94 1007.1
20200710033626 60 325 3.0 0.0 0.00 0.00 0.13 94 1007.1
20200710033149 60 300 3.0 0.0 0.00 0.00 0.13 94 1007.0
20200710032633 61 313 3.0 0.0 0.00 0.00 0.13 94 1007.0
20200710032127 61 273 3.0 0.0 0.00 0.00 0.13 94 1007.0
20200710031649 61 306 3.0 0.0 0.00 0.00 0.13 94 1007.0
20200710031141 61 269 3.0 0.0 0.00 0.00 0.12 94 1007.0
20200710030649 61 292 3.0 0.0 0.00 0.00 0.12 94 1007.0
20200710030335 61 263 4.0 0.0 0.00 0.00 0.12 94 1007.0
20200710025628 61 303 4.0 0.0 0.00 0.00 0.12 94 1007.0
20200710025138 61 286 4.0 0.0 0.00 0.00 0.11 94 1007.1
20200710024641 61 259 4.0 0.0 0.00 0.00 0.09 94 1007.1
20200710024128 61 261 3.0 0.0 0.00 0.00 0.09 94 1007.1
20200710023644 61 298 3.0 0.0 0.00 0.00 0.08 94 1007.0
20200710023137 61 250 3.0 0.0 0.00 0.00 0.08 94 1007.1
20200710022652 61 271 4.0 0.0 0.00 0.00 0.06 94 1007.1
20200710022139 61 241 4.0 0.0 0.00 0.00 0.06 94 1007.2
20200710021636 61 237 4.0 0.0 0.00 0.00 0.06 94 1007.2
20200710020624 61 239 4.0 0.0 0.00 0.00 0.04 94 1007.5
20200710020314 61 263 3.0 0.0 0.00 0.00 0.04 94 1007.6
20200710015634 61 249 3.0 0.0 0.00 0.00 0.04 94 1007.6
20200710015127 61 236 3.0 0.0 0.00 0.00 0.04 94 1007.6
20200710014637 61 261 4.0 0.0 0.00 0.00 0.03 94 1007.7
20200710014128 61 235 5.0 0.0 0.00 0.00 0.03 94 1007.7
20200710013643 61 254 5.0 0.0 0.00 0.00 0.03 94 1007.8
20200710013143 61 269 4.0 0.0 0.00 0.00 0.03 94 1007.9
20200710012647 61 227 4.0 0.0 0.00 0.00 0.03 94 1008.0
20200710012142 61 223 3.0 0.0 0.00 0.00 0.02 94 1008.1
20200710011643 61 254 3.0 0.0 0.00 0.00 0.02 94 1008.1
20200710011142 61 237 3.0 0.0 0.00 0.00 0.02 94 1008.1
20200710010643 61 209 3.0 0.0 0.00 0.00 0.02 94 1008.1
20200710010309 61 237 3.0 0.0 0.00 0.00 0.02 94 1008.0
20200710005634 61 252 3.0 0.0 0.00 0.00 0.02 94 1008.1
20200710005127 61 232 3.0 0.0 0.00 0.00 0.02 94 1008.1
20200710004644 61 197 3.0 0.0 0.00 0.00 0.02 94 1008.1
20200710004132 61 261 3.0 0.0 0.00 0.00 0.02 94 1008.2
20200710003624 61 240 3.0 0.0 0.00 0.00 0.02 94 1008.1
20200710003145 61 241 3.0 0.0 0.00 0.00 0.02 94 1008.2
20200710002623 61 238 3.0 0.0 0.00 0.00 0.02 94 1008.4
20200710002147 61 244 3.0 0.0 0.00 0.00 0.02 94 1008.5
20200710001639 61 248 3.0 0.0 0.00 0.00 0.02 94 1008.5
20200710001128 61 213 3.0 0.0 0.00 0.00 0.02 94 1008.5
20200710000633 62 232 2.0 0.0 0.00 0.00 0.02 94 1008.5
20200710000304 62 207 3.0 0.0 0.00 0.00 0.01 93 1008.6
20200709235638 62 219 4.0 0.0 0.00 0.00 0.01 93 1008.6
20200709235129 62 200 3.0 0.0 0.00 0.00 0.01 93 1008.6
20200709234650 62 256 3.0 0.0 0.00 0.00 0.01 93 1008.6
20200709234139 62 229 3.0 0.0 0.00 0.00 0.01 93 1008.6
20200709233631 62 256 4.0 0.0 0.00 0.00 0.01 93 1008.6
20200709233139 62 165 4.0 0.0 0.00 0.00 0.01 93 1008.7
20200709232643 62 211 4.0 0.0 0.00 0.00 0.01 93 1008.7
20200709232137 62 203 4.0 0.0 0.00 0.00 0.01 93 1008.8
20200709231630 62 218 3.0 0.0 0.00 0.00 0.01 93 1008.9
20200709231145 62 227 3.0 0.0 0.00 0.00 0.01 93 1008.9
20200709230630 62 250 3.0 0.0 0.00 0.00 0.01 93 1009.0
20200709230315 62 234 3.0 0.0 0.00 0.00 0.01 93 1009.0
20200709225648 62 215 3.0 0.0 0.00 0.00 0.00 93 1009.0
20200709225133 62 239 3.0 0.0 0.00 0.00 0.00 93 1009.0
20200709224644 62 230 3.0 0.0 0.00 0.00 0.00 93 1009.1
20200709224129 62 254 3.0 0.0 0.00 0.00 0.00 93 1009.1
20200709223648 62 247 2.0 0.0 0.00 0.00 0.00 93 1009.1
20200709223138 62 259 3.0 0.0 0.00 0.00 0.00 93 1009.1
20200709222638 62 245 4.0 0.0 0.00 0.00 0.00 93 1009.2
20200709222131 62 211 4.0 0.0 0.00 0.00 0.00 92 1009.2
20200709221649 62 231 4.0 0.0 0.00 0.00 0.00 92 1009.3
20200709221141 62 222 4.0 0.0 0.00 0.00 0.31 92 1009.3
20200709220634 62 252 3.0 0.0 0.00 0.00 0.31 92 1009.3
20200709220331 62 240 3.0 0.0 0.00 0.00 0.31 92 1009.3
20200709215628 62 248 3.0 0.0 0.00 0.00 0.31 92 1009.3
20200709215136 62 257 4.0 0.0 0.00 0.00 0.31 92 1009.4
20200709214630 62 257 4.0 0.0 0.00 0.00 0.31 92 1009.6
20200709214148 62 268 4.0 0.0 0.00 0.00 0.31 92 1009.6
20200709213640 62 243 4.0 0.0 0.00 0.00 0.31 92 1009.6
20200709213154 62 279 4.0 0.0 0.00 0.00 0.31 92 1009.6
20200709212632 62 225 5.0 0.0 0.00 0.00 0.31 91 1009.6
20200709212130 62 257 4.0 0.0 0.00 0.00 0.31 91 1009.6
20200709211630 62 256 4.0 0.0 0.00 0.00 0.31 91 1009.6
20200709211138 62 299 4.0 0.0 0.00 0.00 0.31 91 1009.6
20200709210628 63 244 4.0 0.0 0.00 0.00 0.31 91 1009.7
20200709205630 63 259 5.0 0.0 0.00 0.00 0.31 91 1009.7
20200709205123 63 261 4.0 0.0 0.00 0.00 0.31 91 1009.7
20200709204645 63 242 5.0 0.0 0.00 0.00 0.31 91 1009.7
20200709204131 63 280 5.0 0.0 0.00 0.00 0.31 91 1009.8
20200709203650 63 250 5.0 0.0 0.00 0.00 0.31 91 1009.7
20200709203158 63 241 4.0 0.0 0.00 0.00 0.31 91 1009.7
20200709202630 63 213 5.0 0.0 0.00 0.00 0.31 91 1009.7
20200709202123 63 256 6.0 0.0 0.00 0.00 0.31 91 1009.7
20200709201643 63 196 6.0 0.0 0.00 0.00 0.31 91 1009.7
20200709201134 63 263 5.0 0.0 0.00 0.00 0.31 91 1009.8
20200709200641 63 248 4.0 0.0 0.00 0.00 0.31 91 1009.8
20200709195142 63 190 3.0 0.0 0.00 0.00 0.31 91 1009.9
20200709194707 63 230 3.0 0.0 0.00 0.00 0.31 91 1010.0
20200709194132 63 230 4.0 0.0 0.00 0.00 0.31 91 1010.0
20200709193624 63 238 4.0 0.0 0.00 0.00 0.31 91 1010.1
20200709193144 63 206 4.0 0.0 0.00 0.00 0.31 91 1010.1
20200709192621 63 199 4.0 0.0 0.00 0.00 0.31 91 1010.1
20200709192138 63 259 4.0 0.0 0.00 0.00 0.31 91 1010.1
20200709191632 63 238 5.0 0.0 0.00 0.00 0.31 91 1010.1
20200709191124 63 227 5.0 0.0 0.00 0.00 0.31 91 1010.2
20200709190643 63 242 5.0 0.0 0.00 0.00 0.31 91 1010.3
20200709190331 63 250 5.0 0.0 0.00 0.00 0.31 91 1010.3
20200709185636 63 236 5.0 0.0 0.00 0.00 0.31 91 1010.5
20200709184649 63 215 6.0 0.0 0.00 0.00 0.31 90 1010.6
20200709184139 63 207 6.0 0.0 0.00 0.00 0.31 90 1010.6
20200709183633 63 222 5.0 0.0 0.00 0.00 0.31 90 1010.6
20200709183145 63 222 4.0 0.0 0.00 0.00 0.31 90 1010.6
20200709182625 63 249 6.0 0.0 0.00 0.00 0.31 90 1010.6
20200709182127 63 234 7.0 0.0 0.00 0.00 0.31 90 1010.7
20200709181637 63 237 7.0 0.0 0.00 0.00 0.31 90 1010.7
20200709181125 63 249 6.0 0.0 0.00 0.00 0.31 90 1010.7
20200709180645 63 192 6.0 0.0 0.00 0.00 0.31 90 1010.7
20200709180332 63 234 7.0 0.0 0.00 0.00 0.31 90 1010.8
20200709175635 63 259 6.0 0.0 0.00 0.00 0.31 90 1010.9
20200709175142 63 227 7.0 0.0 0.00 0.00 0.31 90 1010.9
20200709174634 63 248 7.0 0.0 0.00 0.00 0.31 90 1010.9
20200709174148 63 211 7.0 0.0 0.00 0.00 0.31 90 1011.1
20200709173642 63 234 8.0 0.0 0.00 0.00 0.31 90 1011.0
20200709173152 63 246 8.0 0.0 0.00 0.00 0.31 89 1011.1
20200709172628 64 250 7.0 0.0 0.00 0.00 0.31 89 1011.0
20200709172144 64 225 6.0 0.0 0.00 0.00 0.31 89 1011.0
20200709171633 63 215 6.0 0.0 0.00 0.00 0.31 90 1011.1
20200709171140 63 248 7.0 0.0 0.00 0.00 0.31 90 1011.1
20200709170633 63 243 7.0 0.0 0.00 0.00 0.31 90 1011.1
20200709170316 63 224 7.0 0.0 0.00 0.00 0.31 90 1011.2
20200709165639 63 249 7.0 0.0 0.00 0.00 0.31 90 1011.2
20200709165133 63 282 5.0 0.0 0.00 0.00 0.31 91 1011.4
20200709164642 63 247 5.0 0.0 0.00 0.00 0.31 91 1011.2
20200709164132 63 254 5.0 0.0 0.00 0.00 0.31 91 1011.2
20200709163625 63 229 7.0 0.0 0.00 0.00 0.31 91 1011.2
20200709163144 62 256 7.0 0.0 0.00 0.00 0.31 91 1011.2
20200709162633 62 209 7.0 0.0 0.00 0.00 0.31 91 1011.2
20200709162127 62 244 7.0 0.0 0.00 0.00 0.31 91 1011.3
20200709161645 62 239 7.0 0.0 0.00 0.00 0.31 91 1011.3
20200709161136 62 223 7.0 0.0 0.00 0.00 0.31 91 1011.5
20200709160626 62 254 8.0 0.0 0.00 0.00 0.31 91 1011.7
20200709160315 62 267 7.0 0.0 0.00 0.00 0.31 91 1011.6
20200709155629 62 247 6.0 0.0 0.00 0.00 0.31 91 1011.7
20200709155148 62 244 6.0 0.0 0.00 0.00 0.31 91 1011.7
20200709154640 62 196 6.0 0.0 0.00 0.00 0.31 91 1011.7
20200709154129 63 264 7.0 0.0 0.00 0.00 0.31 91 1011.7
20200709153637 63 256 8.0 0.0 0.00 0.00 0.31 92 1011.7
20200709153147 63 229 7.0 0.0 0.00 0.00 0.31 90 1011.8
20200709152632 63 240 7.0 0.0 0.00 0.00 0.31 90 1011.7
20200709152135 63 227 8.0 0.0 0.00 0.00 0.31 90 1011.7
20200709151633 63 236 7.0 0.0 0.00 0.00 0.31 90 1011.8
20200709151139 63 248 7.0 0.0 0.00 0.00 0.31 90 1011.7
20200709150717 63 256 6.0 0.0 0.00 0.00 0.31 90 1011.8
20200709150324 63 230 5.0 0.0 0.00 0.00 0.31 90 1011.7
20200709145632 63 227 6.0 0.0 0.00 0.00 0.31 90 1011.7
20200709145154 63 230 6.0 0.0 0.00 0.00 0.31 90 1011.7
20200709144642 63 256 8.0 0.0 0.00 0.00 0.31 90 1011.7
20200709144128 63 248 8.0 0.0 0.00 0.00 0.31 90 1011.7
20200709143639 63 249 7.0 0.0 0.00 0.00 0.31 90 1011.7
20200709143210 63 265 6.0 0.0 0.00 0.00 0.31 90 1011.7
20200709142630 63 296 8.0 0.0 0.00 0.00 0.31 90 1011.7
20200709142141 63 229 8.0 0.0 0.00 0.00 0.31 90 1011.8
20200709141636 63 267 7.0 0.0 0.00 0.00 0.31 90 1011.9